Regional Weather Roundup
Issued by NWS

Home | Current Version | Previous Version | Text Only | Print | Product List | Glossary On
Versions: 1 2 3 4 5 6 7 8 9 10 11 12 13 14 15 16 17 18 19 20 21 22 23 24 25 26 27
000
ASUS44 KLIX 290411
RWRLA
LOUISIANA WEATHER ROUNDUP
NATIONAL WEATHER SERVICE NEW ORLEANS LA
1100 PM CDT SUN AUG 28 2016

NOTE: "FAIR" INDICATES FEW OR NO CLOUDS BELOW 12,000 FEET WITH NO
      SIGNIFICANT WEATHER AND/OR OBSTRUCTIONS TO VISIBILITY.
      SKY/WX - SKY CONDITION AND SIGNIFICANT WEATHER.
      TMP - AIR TEMPERATURE.    DP   - DEWPOINT TEMPERATURE.
      RH  - RELATIVE HUMIDITY.  PRES - PRESSURE.
      HX  - HEAT INDEX.         WCI  - WIND CHILL INDEX.

*  THESE STATIONS ARE NOT NWS OR FAA STATIONS AND ARE NOT UNDER
   NWS QUALITY CONTROL.

LAZ040-048-061>063-065-066-069-290500-
SOUTHEAST LOUISIANA

CITY           SKY/WX    TMP DP  RH WIND       PRES   REMARKS
N.O. AUDUBON   NOT AVBL
N.O. INTL ARPT CLOUDY    82  74  76 E6        29.99R
N.O. LAKEFRONT PTCLDY    81  74  79 E8        30.00R
N.O. DOWNTOWN* FAIR      80  75  84 NE3       30.00R
RESERVE*       FAIR      80  77  90 NE3       30.00R
SLIDELL        MOCLDY    76  75  97 CALM      30.00R
BATON ROUGE    MOCLDY    75  74  96 E3        30.01R
BOOTHVILLE     PTCLDY    82  77  84 E7        29.97S
BELLE CHASSE   CLOUDY    78  76  93 NE3       29.99R
BOGALUSA*      FAIR      78  74  87 CALM      30.02S
GALLIANO*      CLEAR    N/A N/A N/A NE3       29.99R
NEW ROADS*     FAIR      75  72  90 E3        30.01R
GONZALES*      FAIR      77  76  95 CALM      29.99R
HAMMOND*       CLOUDY    75  72  88 CALM      30.00S
HOUMA*         CLEAR     76  75  98 NE7       29.99R
PORT FOURCHON* CLEAR     81  75  83 NE9       29.97R

$$

LAZ041-044-053-054-290500-
SOUTHWEST LOUISIANA

CITY           SKY/WX    TMP DP  RH WIND       PRES   REMARKS
LAKE CHARLES   CLOUDY    76  74  93 NE6       29.97R
LAFAYETTE      CLEAR     76  72  87 E3        29.99R
PATTERSON      CLEAR     76  75  97 NE5       29.99R
SALT POINT       N/A     78  74  87 VRB5      29.97R
NEW IBERIA     CLEAR     76  72  87 E5        29.99R
CHENAULT AIRPK CLOUDY    74  74  98 NE6       29.97S

$$

LAZ027-028-290500-
CENTRAL LOUISIANA

CITY           SKY/WX    TMP DP  RH WIND       PRES   REMARKS
FORT POLK      PTCLDY    77  70  80 NE5       29.99S
ALEXANDRIA INT PTCLDY    76  71  85 NE5       29.99R
ALEXANDRIA     MOCLDY    74  71  91 CALM      30.00R

$$

LAZ001-002-290500-
NORTHWEST LOUISIANA

CITY           SKY/WX    TMP DP  RH WIND       PRES   REMARKS
SHREVEPORT     CLOUDY    77  75  93 N8        30.02R
BARKSDALE AFB  PTCLDY    76  76 100 N6        30.02R
DTN SHREVEPORT PTCLDY    77  74  90 N3        30.03R

$$

LAZ014-016-290500-
NORTHEAST LOUISIANA

CITY           SKY/WX    TMP DP  RH WIND       PRES   REMARKS
MONROE         CLOUDY    78  74  87 S7        30.01S
TALLULAH       CLOUDY    79  74  84 CALM      30.01R

$$





USA.gov is the U.S. government's official web portal to all federal, state and local government web resources and services.